Weather History for Harare Kutsaga, Zimbabwe

Change the Weather History Date:

Friday, October 5, 2012

  Actual Average Record
Temperature  
Mean Temperature 75 °F -  
Max Temperature 89 °F 83 °F 91 °F (2005)
Min Temperature 61 °F 56 °F 52 °F (2014)
Cooling Degree Days 10    
Growing Degree Days 25 (Base 50)    
Moisture  
Dew Point 45 °F    
Average Humidity 34    
Maximum Humidity 55    
Minimum Humidity 14    
Precipitation  
Precipitation 0.00 in 0.06 in - ()
Sea Level Pressure  
Sea Level Pressure 30.13 in    
Wind  
Wind Speed 8 mph ()    
Max Wind Speed 16 mph    
Max Gust Speed -    
Visibility 15.5 miles    
Events      
Averages and records for this station are not official NWS values.
T = Trace of Precipitation, MM = Missing Value Source: Averaged Metar Reports

Daily Weather History Graph

Daily Weather History Graph

Search for Another Location

Airport:

Trip Planner

Search our weather history database for the weather conditions in past years. The results will help you decide how hot, cold, wet, or windy it might be!

Date:

Astronomy

Oct. 05, 2012 Rise Set
Actual Time 5:34 AM CAT 5:53 PM CAT
Civil Twilight 5:12 AM CAT 6:15 PM CAT
Nautical Twilight 4:46 AM CAT 6:41 PM CAT
Astronomical Twilight 4:21 AM CAT 7:06 PM CAT
Moon 10:24 PM CAT (10/5) 9:01 AM CAT (10/5)
Length of Visible Light 13h 03m
Length of Day
12h 19m
Waning Gibbous, 76% of the Moon is Illuminated
Oct 5
Waning Gibbous
Oct 8
Last Quarter
Oct 15
New
Oct 22
First Quarter
Oct 29
Full

Hourly Weather History & Observations

Time (CAT) Temp. Dew Point Humidity Pressure Visibility Wind Dir Wind Speed Gust Speed Precip Events Conditions
12:00 AM 69.8 °F 46.4 °F 43% 30.15 in - ENE 11.5 mph - N/A   Clear
1:00 AM 68.0 °F 46.4 °F 46% 30.12 in - East 9.2 mph - N/A   Clear
2:00 AM 64 °F 46 °F 41%  in 19 mi East 8.1 mph - -  
2:00 AM 64.4 °F 46.4 °F 52% 30.12 in - East 8.1 mph - N/A   Clear
3:00 AM 62.6 °F 46.4 °F 55% 30.12 in - East 6.9 mph - N/A   Clear
5:00 AM 64.4 °F 46.4 °F 52% 30.12 in - ENE 10.4 mph - N/A   Clear
6:00 AM 66.2 °F 46.4 °F 49% 30.12 in - ENE 10.4 mph - N/A   Clear
7:00 AM 69.8 °F 48.2 °F 46% 30.15 in - East 10.4 mph - N/A   Clear
8:00 AM 74 °F 50 °F 31%  in 19 mi East 16.1 mph - -  
8:00 AM 73.4 °F 50.0 °F 44% 30.18 in - East 16.1 mph - N/A   Clear
9:00 AM 78.8 °F 50.0 °F 36% 30.18 in - East 16.1 mph - N/A   Clear
10:00 AM 80.6 °F 50.0 °F 34% 30.18 in - ENE 15.0 mph - N/A   Clear
11:00 AM 82.4 °F 48.2 °F 30% 30.18 in - ENE 8.1 mph - N/A   Clear
12:00 PM 86.0 °F 44.6 °F 23% 30.15 in - ESE 5.8 mph - N/A   Clear
1:00 PM 86.0 °F 44.6 °F 23% 30.12 in - ESE 8.1 mph - N/A   Clear
2:00 PM 87 °F 45 °F 14%  in 12 mi East 3.5 mph - -   Haze
2:00 PM 87.8 °F 44.6 °F 22% 30.09 in - Variable 4.6 mph - N/A   Clear
3:00 PM 87.8 °F 42.8 °F 21% 30.06 in - Variable 3.5 mph - N/A   Clear
4:00 PM 87.8 °F 39.2 °F 18% 30.06 in - Variable 5.8 mph - N/A   Clear
5:00 PM 84.2 °F 39.2 °F 20% 30.06 in - SE 6.9 mph - N/A   Clear
6:00 PM 82.4 °F 37.4 °F 20% 30.09 in - SE 8.1 mph - N/A   Clear
7:00 PM 77.0 °F 37.4 °F 24% 30.12 in - East 6.9 mph - N/A   Clear
8:00 PM 76 °F 46 °F 23%  in 12 mi East 8.1 mph - -   Haze
8:00 PM 77.0 °F 46.4 °F 34% 30.15 in - East 8.1 mph - N/A   Clear
9:00 PM 75.2 °F 44.6 °F 34% 30.15 in - East 9.2 mph - N/A   Clear
10:00 PM 71.6 °F 44.6 °F 38% 30.18 in - East 10.4 mph - N/A   Clear
11:00 PM 69.8 °F 46.4 °F 43% 30.15 in - East 10.4 mph - N/A   Clear